DW7281 Weather Reports


Display with metric or nautical units.
time (UTC)temp
F
wind
direction
speed
MPH
gust
MPH
rain 1hr
in
rain 24hr
in
rain mn
in
humidity
%
barometer
mb
20260904073055 74 173 3.0 10.0 0.00 0.00 0.00 37 1023.3
20260904071551 75 161 4.0 12.0 0.00 0.00 0.00 36 1023.1
20260904070059 76 174 7.0 17.0 0.00 0.00 0.00 34 1023.0
20260904064556 77 196 7.0 17.0 0.00 0.00 0.00 34 1023.0
20260904063107 78 233 5.0 14.0 0.00 0.00 0.00 33 1022.9
20260904061558 78 198 6.0 18.0 0.00 0.00 0.00 32 1022.9
20260904060112 79 128 6.0 19.0 0.00 0.00 0.00 31 1022.9
20260904054555 79 171 8.0 18.0 0.00 0.00 0.00 28 1022.9
20260904053049 80 155 3.0 16.0 0.00 0.00 0.00 26 1022.9
20260904051551 80 167 7.0 17.0 0.00 0.00 0.00 25 1022.8
20260904050056 81 205 9.0 17.0 0.00 0.00 0.00 22 1022.7
20260904044558 82 199 7.0 18.0 0.00 0.00 0.00 23 1022.8
20260904043054 82 203 7.0 17.0 0.00 0.00 0.00 25 1022.8
20260904041601 82 201 6.0 17.0 0.00 0.00 0.00 26 1022.9
20260904040058 82 202 3.0 14.0 0.00 0.00 0.00 30 1022.9
20260904034612 81 224 4.0 12.0 0.00 0.00 0.00 31 1023.1
20260904033056 81 184 4.0 14.0 0.00 0.00 0.00 30 1023.4
20260904031555 80 222 2.0 12.0 0.00 0.00 0.00 33 1023.6
20260904030104 81 215 2.0 12.0 0.00 0.00 0.00 33 1024.0
20260904024603 80 194 1.0 16.0 0.00 0.00 0.00 34 1023.9
20260904023103 80 196 5.0 10.0 0.00 0.00 0.00 33 1024.2
20260904021553 79 0 5.0 13.0 0.00 0.00 0.00 32 1024.5
20260904020101 79 177 5.0 14.0 0.00 0.00 0.00 35 1024.4
20260904014558 79 215 4.0 13.0 0.00 0.00 0.00 35 1024.7
20260904013055 79 222 3.0 10.0 0.00 0.00 0.00 36 1024.9
20260904011551 79 177 4.0 10.0 0.00 0.00 0.00 37 1025.3
20260904004600 77 196 2.0 10.0 0.00 0.00 0.00 40 1025.9
20260904003056 76 0 3.0 10.0 0.00 0.00 0.00 40 1026.0
20260904001556 76 0 1.0 11.0 0.00 0.00 0.00 41 1026.2
20260904000135 75 0 1.0 10.0 0.00 0.00 0.00 42 1026.2
20260903234558 74 207 2.0 10.0 0.00 0.00 0.00 42 1026.5
20260903233101 73 0 0.0 6.0 0.00 0.00 0.00 44 1026.6
20260903231553 73 0 0.0 5.0 0.00 0.00 0.00 46 1026.6
20260903230050 72 175 2.0 7.0 0.00 0.00 0.00 48 1026.6
20260903224606 71 0 2.0 6.0 0.00 0.00 0.00 49 1026.7
20260903223051 70 259 1.0 6.0 0.00 0.00 0.00 50 1026.6
20260903221552 69 209 2.0 7.0 0.00 0.00 0.00 52 1026.5
20260903220111 68 213 0.0 7.0 0.00 0.00 0.00 53 1026.4
20260903214559 67 0 0.0 0.0 0.00 0.00 0.00 54 1026.2
20260903213050 65 0 0.0 0.0 0.00 0.00 0.00 56 1026.1
20260903211618 64 0 0.0 0.0 0.00 0.00 0.00 58 1025.7
20260903210059 61 0 0.0 0.0 0.00 0.00 0.00 63 1025.5
20260903204549 57 0 0.0 0.0 0.00 0.00 0.00 67 1025.2
20260903203056 56 0 0.0 0.0 0.00 0.00 0.00 68 1025.1
20260903201557 55 0 0.0 0.0 0.00 0.00 0.00 68 1025.0
20260903200054 55 0 0.0 0.0 0.00 0.00 0.00 68 1024.8
20260903194549 55 0 0.0 0.0 0.00 0.00 0.00 68 1024.6
20260903193056 55 0 0.0 0.0 0.00 0.00 0.00 68 1024.5
20260903191555 55 0 0.0 0.0 0.00 0.00 0.00 67 1024.4
20260903190058 55 0 0.0 0.0 0.00 0.00 0.00 66 1024.1
20260903184604 55 0 0.0 0.0 0.00 0.00 0.00 66 1023.9
20260903183057 55 0 0.0 0.0 0.00 0.00 0.00 66 1023.7
20260903181553 55 0 0.0 0.0 0.00 0.00 0.00 65 1023.5
20260903180106 56 0 0.0 0.0 0.00 0.00 0.00 64 1023.4
20260903174611 56 0 0.0 0.0 0.00 0.00 0.00 63 1023.4
20260903173106 56 0 0.0 0.0 0.00 0.00 0.00 62 1023.3
20260903171601 57 0 0.0 0.0 0.00 0.00 0.00 62 1023.2
20260903170110 57 0 0.0 0.0 0.00 0.00 0.00 61 1023.1
20260903164556 57 0 0.0 0.0 0.00 0.00 0.00 61 1023.3
20260903163052 58 0 0.0 0.0 0.00 0.00 0.00 60 1023.2
20260903161549 58 0 0.0 0.0 0.00 0.00 0.00 60 1023.3
20260903160055 59 0 0.0 0.0 0.00 0.00 0.00 59 1023.3
20260903154558 59 0 0.0 0.0 0.00 0.00 0.00 58 1023.4
20260903153059 60 0 0.0 0.0 0.00 0.00 0.00 56 1023.4
20260903151557 61 0 0.0 0.0 0.00 0.00 0.00 56 1023.4
20260903150111 61 0 0.0 0.0 0.00 0.00 0.00 55 1023.5
20260903144552 62 0 0.0 0.0 0.00 0.00 0.00 55 1023.5
20260903143055 62 0 0.0 0.0 0.00 0.00 0.00 53 1023.5
20260903141555 63 0 0.0 0.0 0.00 0.00 0.00 52 1023.6
20260903140057 63 0 0.0 0.0 0.00 0.00 0.00 51 1023.7
20260903134552 64 0 0.0 0.0 0.00 0.00 0.00 51 1023.5
20260903133054 64 0 0.0 0.0 0.00 0.00 0.00 50 1023.6
20260903131601 64 0 0.0 0.0 0.00 0.00 0.00 50 1023.5
20260903130112 64 0 0.0 0.0 0.00 0.00 0.00 49 1023.6
20260903124557 64 0 0.0 0.0 0.00 0.00 0.00 49 1023.8
20260903123058 65 0 0.0 0.0 0.00 0.00 0.00 48 1023.9
20260903121554 65 0 0.0 0.0 0.00 0.00 0.00 47 1023.9
20260903120055 66 0 0.0 0.0 0.00 0.00 0.00 47 1023.9
20260903114551 66 0 0.0 0.0 0.00 0.00 0.00 46 1023.9
20260903113056 67 0 0.0 0.0 0.00 0.00 0.00 46 1023.8
20260903111623 68 0 0.0 6.0 0.00 0.00 0.00 44 1023.7
20260903110110 68 213 2.0 6.0 0.00 0.00 0.00 44 1023.4
20260903104630 68 215 3.0 8.0 0.00 0.00 0.00 44 1023.5
20260903103051 68 0 0.0 0.0 0.00 0.00 0.00 44 1023.3
20260903101557 69 0 0.0 0.0 0.00 0.00 0.00 44 1023.2
20260903100056 69 0 0.0 0.0 0.00 0.00 0.00 43 1023.1
20260903094603 69 0 0.0 0.0 0.00 0.00 0.00 43 1023.0
20260903093056 70 0 0.0 0.0 0.00 0.00 0.00 43 1022.9
20260903091556 70 0 0.0 0.0 0.00 0.00 0.00 42 1022.8
20260903090055 71 0 0.0 0.0 0.00 0.00 0.00 41 1022.5
20260903084600 72 0 0.0 0.0 0.00 0.00 0.00 40 1022.4
20260903083057 72 0 0.0 0.0 0.00 0.00 0.00 39 1022.1
20260903081555 73 0 0.0 0.0 0.00 0.00 0.00 38 1022.0
20260903080057 75 0 0.0 0.0 0.00 0.00 0.00 37 1022.0
20260903074602 76 0 0.0 9.0 0.00 0.00 0.00 35 1022.0